TimeCST,TemperatureF,Dew PointF,Humidity,Sea Level PressureIn,VisibilityMPH,Wind Direction,Wind SpeedMPH,Gust SpeedMPH,PrecipitationIn,Events,Conditions,WindDirDegrees,DateUTC
12:15 AM,21.2,19.4,93,30.03,4.0,Calm,Calm,-,N/A,,Overcast,0,2013-02-07 06:15:00
12:35 AM,21.2,19.4,93,30.03,3.0,East,3.5,-,N/A,,Overcast,90,2013-02-07 06:35:00
12:55 AM,21.2,19.4,93,30.03,3.0,East,4.6,-,N/A,,Overcast,100,2013-02-07 06:55:00
1:15 AM,23.0,19.4,86,30.03,3.0,Calm,Calm,-,N/A,,Overcast,0,2013-02-07 07:15:00
1:35 AM,23.0,19.4,86,30.03,3.0,East,3.5,-,N/A,,Overcast,100,2013-02-07 07:35:00
1:55 AM,23.0,19.4,86,30.04,3.0,ESE,4.6,-,N/A,,Overcast,110,2013-02-07 07:55:00
2:15 AM,23.0,19.4,86,30.04,3.0,East,3.5,-,N/A,,Overcast,90,2013-02-07 08:15:00
2:35 AM,23.0,19.4,86,30.04,4.0,East,4.6,-,N/A,,Overcast,80,2013-02-07 08:35:00
2:55 AM,23.0,19.4,86,30.04,4.0,East,3.5,-,N/A,,Overcast,90,2013-02-07 08:55:00
3:15 AM,23.0,19.4,86,30.03,4.0,Calm,Calm,-,N/A,,Overcast,0,2013-02-07 09:15:00
3:35 AM,21.2,19.4,93,30.03,4.0,East,3.5,-,N/A,,Overcast,80,2013-02-07 09:35:00
3:55 AM,21.2,19.4,93,30.03,4.0,Calm,Calm,-,N/A,,Overcast,0,2013-02-07 09:55:00
4:15 AM,21.2,19.4,93,30.03,5.0,ENE,3.5,-,N/A,,Overcast,70,2013-02-07 10:15:00
4:35 AM,21.2,19.4,93,30.03,7.0,ENE,3.5,-,N/A,,Overcast,70,2013-02-07 10:35:00
4:55 AM,21.2,17.6,86,30.03,7.0,East,4.6,-,N/A,,Overcast,90,2013-02-07 10:55:00
5:15 AM,21.2,17.6,86,30.03,7.0,Calm,Calm,-,N/A,,Overcast,0,2013-02-07 11:15:00
5:35 AM,21.2,17.6,86,30.03,7.0,Calm,Calm,-,N/A,,Overcast,0,2013-02-07 11:35:00
5:55 AM,19.4,17.6,93,30.03,7.0,ENE,3.5,-,N/A,,Overcast,60,2013-02-07 11:55:00
6:15 AM,19.4,17.6,93,30.03,7.0,Calm,Calm,-,N/A,,Overcast,0,2013-02-07 12:15:00
6:35 AM,19.4,17.6,93,30.03,7.0,East,3.5,-,N/A,,Overcast,80,2013-02-07 12:35:00
6:55 AM,19.4,17.6,93,30.03,7.0,ENE,4.6,-,N/A,,Overcast,60,2013-02-07 12:55:00
7:15 AM,19.4,17.6,93,30.04,5.0,East,3.5,-,N/A,,Overcast,80,2013-02-07 13:15:00
7:35 AM,19.4,17.6,93,30.04,4.0,East,3.5,-,N/A,,Overcast,80,2013-02-07 13:35:00
7:55 AM,19.4,17.6,93,30.06,4.0,East,4.6,-,N/A,,Overcast,90,2013-02-07 13:55:00
8:15 AM,19.4,17.6,93,30.06,2.5,East,4.6,-,N/A,,Overcast,90,2013-02-07 14:15:00
8:35 AM,21.2,17.6,86,30.06,2.0,ENE,4.6,-,N/A,,Overcast,60,2013-02-07 14:35:00
8:55 AM,21.2,19.4,93,30.06,2.5,ENE,3.5,-,N/A,,Overcast,60,2013-02-07 14:55:00
9:15 AM,23.0,19.4,86,30.06,3.0,ENE,5.8,-,N/A,,Overcast,70,2013-02-07 15:15:00
9:35 AM,23.0,19.4,86,30.06,3.0,ENE,4.6,-,N/A,,Overcast,60,2013-02-07 15:35:00
9:55 AM,23.0,19.4,86,30.06,4.0,ENE,5.8,-,N/A,,Overcast,70,2013-02-07 15:55:00
10:15 AM,23.0,19.4,86,30.08,5.0,NE,6.9,-,N/A,,Overcast,50,2013-02-07 16:15:00
10:35 AM,23.0,19.4,86,30.09,3.0,NE,5.8,-,N/A,,Overcast,50,2013-02-07 16:35:00
10:55 AM,23.0,19.4,86,30.09,4.0,NE,5.8,-,N/A,,Overcast,50,2013-02-07 16:55:00
11:15 AM,23.0,19.4,86,30.08,3.0,NE,5.8,-,N/A,,Overcast,50,2013-02-07 17:15:00
11:35 AM,23.0,19.4,86,30.06,3.0,NE,9.2,-,N/A,,Overcast,50,2013-02-07 17:35:00
11:55 AM,23.0,19.4,86,30.06,2.5,ENE,8.1,-,N/A,,Overcast,60,2013-02-07 17:55:00
12:15 PM,23.0,19.4,86,30.06,4.0,NNE,5.8,-,N/A,,Overcast,30,2013-02-07 18:15:00
12:35 PM,23.0,19.4,86,30.06,4.0,NE,6.9,-,N/A,,Overcast,40,2013-02-07 18:35:00
12:55 PM,23.0,21.2,93,30.05,3.0,NE,4.6,-,N/A,,Overcast,40,2013-02-07 18:55:00
1:15 PM,23.0,21.2,93,30.05,2.0,NNE,9.2,-,N/A,,Overcast,30,2013-02-07 19:15:00
1:35 PM,23.0,21.2,93,30.04,2.5,NE,6.9,-,N/A,,Overcast,40,2013-02-07 19:35:00
1:55 PM,23.0,21.2,93,30.04,4.0,NE,10.4,-,N/A,,Overcast,40,2013-02-07 19:55:00
2:15 PM,23.0,21.2,93,30.04,3.0,NNE,9.2,-,N/A,,Overcast,20,2013-02-07 20:15:00
2:35 PM,23.0,19.4,86,30.04,2.5,NNE,5.8,9.2,N/A,,Overcast,30,2013-02-07 20:35:00
2:55 PM,23.0,21.2,93,30.04,3.0,NNE,6.9,-,N/A,,Overcast,30,2013-02-07 20:55:00
3:15 PM,23.0,21.2,93,30.04,3.0,NE,9.2,-,N/A,,Overcast,40,2013-02-07 21:15:00
3:35 PM,23.0,21.2,93,30.05,4.0,NNE,6.9,-,N/A,,Overcast,30,2013-02-07 21:35:00
3:55 PM,23.0,21.2,93,30.05,5.0,NNE,9.2,16.1,N/A,,Overcast,30,2013-02-07 21:55:00
4:15 PM,23.0,21.2,93,30.05,4.0,NE,10.4,-,N/A,,Overcast,40,2013-02-07 22:15:00
4:35 PM,23.0,21.2,93,30.06,5.0,NE,6.9,-,N/A,,Overcast,40,2013-02-07 22:35:00
4:55 PM,23.0,21.2,93,30.07,5.0,NE,6.9,-,N/A,,Overcast,40,2013-02-07 22:55:00
5:15 PM,23.0,21.2,93,30.08,7.0,NE,12.7,17.3,N/A,,Overcast,50,2013-02-07 23:15:00
5:35 PM,23.0,19.4,86,30.09,10.0,NE,6.9,-,N/A,,Overcast,50,2013-02-07 23:35:00
5:55 PM,23.0,19.4,86,30.09,7.0,NE,6.9,-,N/A,,Overcast,40,2013-02-07 23:55:00
6:15 PM,23.0,19.4,86,30.10,7.0,NE,4.6,-,N/A,,Overcast,40,2013-02-08 00:15:00
6:35 PM,23.0,19.4,86,30.10,10.0,NNE,5.8,-,N/A,,Overcast,30,2013-02-08 00:35:00
6:55 PM,23.0,19.4,86,30.11,10.0,NE,10.4,18.4,N/A,,Overcast,50,2013-02-08 00:55:00
7:15 PM,23.0,19.4,86,30.11,10.0,ENE,10.4,16.1,N/A,,Overcast,60,2013-02-08 01:15:00
7:35 PM,23.0,19.4,86,30.11,10.0,NNE,5.8,-,N/A,,Overcast,30,2013-02-08 01:35:00
7:55 PM,23.0,19.4,86,30.12,10.0,NE,10.4,18.4,N/A,,Overcast,50,2013-02-08 01:55:00
8:15 PM,23.0,19.4,86,30.13,10.0,NNE,6.9,-,N/A,,Overcast,30,2013-02-08 02:15:00
8:35 PM,23.0,19.4,86,30.14,10.0,NNE,8.1,-,N/A,,Overcast,30,2013-02-08 02:35:00
8:55 PM,21.2,17.6,86,30.15,10.0,NNE,8.1,-,N/A,,Overcast,30,2013-02-08 02:55:00
9:15 PM,19.4,15.8,86,30.15,10.0,NE,6.9,-,N/A,Snow,Light Snow,40,2013-02-08 03:15:00
9:35 PM,19.4,15.8,86,30.15,7.0,NE,9.2,-,N/A,Snow,Light Snow,50,2013-02-08 03:35:00
9:55 PM,19.4,15.8,86,30.15,7.0,North,10.4,-,N/A,Snow,Light Snow,10,2013-02-08 03:55:00
10:15 PM,19.4,15.8,86,30.16,7.0,NE,6.9,-,N/A,Snow,Light Snow,50,2013-02-08 04:15:00
10:35 PM,19.4,14.0,80,30.16,10.0,NNE,5.8,-,N/A,Snow,Light Snow,30,2013-02-08 04:35:00
10:55 PM,19.4,14.0,80,30.17,10.0,NE,9.2,-,N/A,Snow,Light Snow,40,2013-02-08 04:55:00
11:15 PM,19.4,14.0,80,30.18,10.0,NE,10.4,-,N/A,,Overcast,40,2013-02-08 05:15:00
11:35 PM,19.4,14.0,80,30.18,7.0,NNE,8.1,-,N/A,Snow,Light Snow,20,2013-02-08 05:35:00
11:55 PM,17.6,14.0,86,30.19,10.0,NNE,5.8,-,N/A,Snow,Light Snow,20,2013-02-08 05:55:00